#timestamp,LO_Frequency,Hit 
1505145615.2,286047000.9,N
1505145635.0,286047001.0,N
1505145635.9,286047001.0,N
1505145655.8,286046997.3,N
1505145675.6,286046993.5,N
1505145695.4,286046993.8,N
1505145715.3,286046993.3,N
1505145735.1,286046991.2,N
1505145736.0,286046991.2,N
1505145755.8,286046990.9,N
1505145775.7,286046988.5,P
1505145795.5,286046993.7,N
1505145815.3,286046993.3,N
1505145835.2,286046992.5,N
1505145855.9,286046991.0,P
1505145875.7,286046997.7,N
1505145895.6,286046993.5,N
1505145915.4,286046995.5,N
1505145935.2,286046995.6,N
1505145955.1,286046998.5,N
1505145956.0,286046998.5,N
1505145975.8,286046999.8,N
1505145995.6,286047004.4,N
1505146015.4,286047004.8,N
1505146035.3,286047005.2,N
1505146055.1,286047003.0,N
1505146075.8,286047001.3,N
1505146095.7,286047002.1,N
1505146115.5,286047000.6,N
1505146135.3,286047000.1,N
1505146155.2,286046999.7,N
1505146175.9,286047002.4,N
1505146195.7,286046999.0,N
1505146215.6,286047000.9,N
1505146235.4,286046998.4,N
1505146255.2,286046998.6,N
1505146275.1,286046996.8,N
1505146276.0,286046996.8,N
1505146295.8,286046997.2,N
1505146315.6,286046995.2,N
1505146335.5,286046995.3,N
1505146355.3,286046999.3,N
1505146375.1,286046996.1,N
1505146395.8,286046990.2,N
1505146415.7,286046989.1,P
1505146435.5,286046993.9,N
1505146455.4,286046993.1,N
1505146475.2,286046994.7,N
1505146495.0,286046992.0,N
1505146495.9,286046992.0,N
1505146515.7,286046994.8,N
1505146535.6,286046993.9,N
1505146555.4,286046992.6,P
1505146575.2,286046997.4,P
1505146595.1,286046995.2,N
1505146596.0,286046995.2,N
1505146615.8,286047000.0,N
1505146635.6,286047000.9,N
1505146655.5,286046995.0,N
1505146675.3,286046993.6,N
1505146695.1,286046997.4,N
1505146715.9,286046997.4,N
1505146735.7,286046995.2,N
1505146755.5,286046995.0,N
1505146775.4,286046996.0,N
1505146795.2,286046995.8,N
1505146815.0,286046995.8,N
1505146815.9,286046995.8,N
1505146835.8,286046996.2,N
1505146855.6,286046995.7,N
1505146875.4,286046991.7,P
1505146895.3,286046997.8,N
1505146915.1,286046998.0,N
1505146935.8,286046995.3,N
1505146955.7,286046997.2,N
1505146975.5,286046997.1,N
1505146995.3,286046995.0,N
1505147015.2,286046998.0,N
1505147035.9,286046995.5,N
1505147055.7,286046997.8,N
1505147075.6,286046998.0,N
1505147095.4,286046995.5,N
1505147115.2,286046997.3,N
1505147135.0,286046995.6,N
1505147136.0,286046995.6,N
1505147155.8,286046994.6,P
1505147175.6,286046993.3,P
1505147195.5,286046995.2,P
1505147215.3,286046996.1,P
1505147235.1,286046999.5,N
1505147255.9,286047000.0,N
1505147275.7,286046999.7,N
1505147295.5,286046999.9,N
1505147315.4,286047004.4,N
1505147335.2,286047003.1,N
1505147355.0,286047005.5,N
1505147355.9,286047005.5,N
1505147375.8,286047005.4,N
1505147395.6,286047005.7,N
1505147415.4,286047005.6,N
1505147435.2,286047007.6,N
1505147455.1,286047003.6,N
1505147456.0,286047003.6,N
1505147475.8,286047004.2,N
1505147495.6,286047003.3,N
1505147515.5,286047006.0,N
1505147535.3,286047003.3,N
1505147555.1,286047004.7,N
1505147575.9,286047003.0,N
1505147595.7,286047004.4,N
1505147615.5,286047001.6,N
1505147635.4,286046999.7,N
1505147655.2,286047002.1,N
1505147675.0,286047002.1,N
1505147675.9,286047002.1,N
1505147695.8,286047002.7,N
1505147715.6,286047000.4,N
1505147735.4,286046998.6,N
1505147755.2,286046999.5,N
1505147775.1,286046997.0,N
1505147776.0,286046997.0,N
1505147795.8,286047001.1,N
1505147815.7,286047003.0,N
1505147835.5,286047002.4,N
1505147855.3,286047004.0,N
1505147875.1,286047005.8,N
1505147895.9,286047002.9,N
1505147915.7,286047000.4,N
1505147935.5,286047001.7,N
1505147955.4,286047005.7,N
1505147975.2,286047003.0,N
1505147995.0,286047002.5,N
1505147995.9,286047002.5,N
1505148015.8,286047002.8,N
1505148035.6,286047002.0,N
1505148055.4,286047003.9,N
1505148075.3,286047004.4,N
1505148095.1,286047002.8,N
1505148115.8,286047004.4,N
1505148135.7,286047002.4,N
1505148155.5,286047002.8,N
1505148175.3,286046999.6,N
1505148195.2,286046997.0,N
1505148215.9,286047002.0,N
1505148235.7,286047001.6,N
1505148255.6,286047000.4,N
1505148275.4,286047000.0,N
1505148295.2,286046998.8,N
1505148315.0,286046998.1,N
1505148316.0,286046998.1,N
1505148335.8,286047000.2,N
1505148355.6,286047004.3,N
1505148375.4,286047003.2,N
1505148395.3,286047006.0,N
1505148415.1,286047000.1,N
1505148435.8,286046996.8,N
1505148455.7,286046999.2,N
1505148475.5,286046997.4,N
1505148495.3,286046993.8,N
1505148515.2,286046991.0,P
1505148535.0,286046989.1,N
1505148535.9,286046989.1,N
1505148555.7,286046991.1,N
1505148575.6,286046992.7,N
1505148595.4,286046994.4,N
1505148615.2,286046991.7,N
1505148635.1,286046990.2,N
1505148636.0,286046990.2,N
1505148655.8,286046990.7,N
1505148675.6,286046986.9,P
1505148695.5,286046996.0,N
1505148715.3,286046995.2,N
1505148735.1,286046996.7,N
1505148755.9,286046998.1,N
1505148775.7,286046999.4,N
1505148795.5,286046997.5,N
1505148815.4,286046995.6,N
1505148835.2,286046990.6,N
1505148855.0,286046989.6,N
1505148855.9,286046989.6,N
1505148875.8,286046990.0,N
1505148895.6,286046987.3,P
1505148915.4,286046996.1,N
1505148935.3,286046995.4,N
1505148955.1,286046996.4,N
1505148956.0,286046996.4,N
1505148975.8,286046990.9,N
1505148995.7,286046988.6,P
1505149015.5,286046998.5,N
1505149035.3,286047003.7,N
1505149055.2,286047005.9,N
1505149075.9,286047002.7,N
1505149095.7,286047002.0,N
1505149115.6,286046998.5,N
1505149135.4,286046997.0,N
1505149155.2,286046997.6,N
1505149175.0,286046996.9,N
1505149176.0,286046996.9,N
1505149195.8,286046999.5,N
